Montpelier, VT

5:24 AM EDT on October 01, 2016 (GMT -0400)
Knapp State

Weather History for KMPV - September, 2012

Change the Weather History Date:

Saturday, September 8, 2012

  Actual Average Record
Temperature  
Mean Temperature 69 °F 60 °F  
Max Temperature 79 °F 72 °F 91 °F (1960)
Min Temperature 59 °F 49 °F 31 °F (1952)
Degree Days  
Heating Degree Days 0 6  
Month to date heating degree days 9 38  
Since 1 July heating degree days 70 146  
Cooling Degree Days 4 1  
Month to date cooling degree days 12 8  
Year to date cooling degree days 291 252  
Growing Degree Days 18 (Base 50)    
Moisture  
Dew Point 63 °F    
Average Humidity 79    
Maximum Humidity 100    
Minimum Humidity 58    
Precipitation  
Precipitation 0.82 in 0.09 in 0.82 in (2012)
Month to date precipitation 2.16 0.72  
Year to date precipitation 22.72 25.52  
Sea Level Pressure  
Sea Level Pressure 29.71 in    
Wind  
Wind Speed 12 mph (South)    
Max Wind Speed 32 mph    
Max Gust Speed 41 mph    
Visibility 8 miles    
Events Fog , Rain , Thunderstorm    
T = Trace of Precipitation, MM = Missing Value Source: NWS Daily Summary

Daily Weather History Graph

Daily Weather History Graph

Search for Another Location

Airport or City:

Trip Planner

Search our weather history database for the weather conditions in past years. The results will help you decide how hot, cold, wet, or windy it might be!

Date:

Astronomy

Sep. 08, 2012 Rise Set
Actual Time 6:21 AM EDT 7:12 PM EDT
Civil Twilight 5:52 AM EDT 7:42 PM EDT
Nautical Twilight 5:17 AM EDT 8:17 PM EDT
Astronomical Twilight 4:40 AM EDT 8:53 PM EDT
Moon 11:39 PM EDT (9/8) 2:17 PM EDT (9/8)
Length of Visible Light 13h 49m
Length of Day
12h 51m
Waning Gibbous, 49% of the Moon is Illuminated
Sep 8
Waning Gibbous
Sep 15
New
Sep 22
First Quarter
Sep 29
Full
Oct 8
Last Quarter

Hourly Weather History & Observations

Time (EDT) Temp. Dew Point Humidity Pressure Visibility Wind Dir Wind Speed Gust Speed Precip Events Conditions
12:51 AM 59.0 °F 57.2 °F 94% 29.87 in 10.0 mi Calm Calm - N/A   Partly Cloudy
1:51 AM 60.1 °F 57.9 °F 93% 29.88 in 10.0 mi ENE 3.5 mph - N/A   Partly Cloudy
2:51 AM 64.9 °F 60.1 °F 84% 29.85 in 10.0 mi SSE 9.2 mph - N/A   Clear
3:51 AM 64.9 °F 61.0 °F 87% 29.82 in 10.0 mi South 6.9 mph - N/A   Clear
4:51 AM 64.9 °F 63.0 °F 93% 29.82 in 10.0 mi South 6.9 mph - N/A   Clear
5:51 AM 64.9 °F 63.0 °F 93% 29.79 in 8.0 mi Calm Calm - N/A   Clear
6:15 AM 64.4 °F 62.6 °F 94% 29.82 in 7.0 mi Calm Calm - N/A   Scattered Clouds
6:25 AM 66.2 °F 64.4 °F 94% 29.81 in 8.0 mi Calm Calm - N/A   Mostly Cloudy
6:42 AM 66.2 °F 64.4 °F 94% 29.81 in 6.0 mi South 5.8 mph - N/A   Mostly Cloudy
6:51 AM 66.9 °F 64.9 °F 93% 29.81 in 6.0 mi South 11.5 mph - N/A   Mostly Cloudy
7:13 AM 68.0 °F 64.4 °F 88% 29.81 in 6.0 mi South 12.7 mph - N/A   Scattered Clouds
7:21 AM 68.0 °F 64.4 °F 88% 29.80 in 6.0 mi South 13.8 mph - N/A   Mostly Cloudy
7:31 AM 68.0 °F 66.2 °F 94% 29.80 in 6.0 mi South 13.8 mph 21.9 mph N/A   Scattered Clouds
7:51 AM 69.1 °F 66.0 °F 90% 29.78 in 6.0 mi South 13.8 mph 21.9 mph N/A   Clear
8:51 AM 72.0 °F 66.0 °F 81% 29.75 in 7.0 mi South 17.3 mph 25.3 mph N/A   Clear
9:51 AM 73.9 °F 66.0 °F 76% 29.73 in 9.0 mi South 23.0 mph 31.1 mph N/A   Clear
10:51 AM 73.9 °F 64.0 °F 71% 29.71 in 10.0 mi SSE 21.9 mph 28.8 mph N/A   Clear
11:51 AM 75.0 °F 63.0 °F 66% 29.67 in 10.0 mi South 16.1 mph 28.8 mph N/A   Clear
12:51 PM 78.1 °F 62.1 °F 58% 29.65 in 10.0 mi SSE 16.1 mph 33.4 mph N/A   Partly Cloudy
1:51 PM 77.0 °F 63.0 °F 62% 29.63 in 10.0 mi South 18.4 mph 29.9 mph N/A   Mostly Cloudy
2:51 PM 72.0 °F 64.9 °F 78% 29.60 in 10.0 mi South 16.1 mph 33.4 mph 0.01 in Rain Light Rain
3:51 PM 70.0 °F 66.9 °F 90% 29.58 in 10.0 mi SSE 18.4 mph 24.2 mph 0.02 in   Mostly Cloudy
4:23 PM 69.8 °F 66.2 °F 88% 29.57 in 10.0 mi SSE 17.3 mph 23.0 mph N/A   Mostly Cloudy
4:51 PM 70.0 °F 66.0 °F 87% 29.54 in 10.0 mi SSE 21.9 mph 28.8 mph N/A   Overcast
5:37 PM 68.0 °F 64.4 °F 88% 29.59 in 1.0 mi West 23.0 mph 36.8 mph 0.16 in Rain Heavy Rain
5:40 PM 66.2 °F 64.4 °F 94% 29.60 in 0.5 mi SW 18.4 mph 36.8 mph 0.34 in Fog , Rain , Thunderstorm Heavy Thunderstorms and Rain
5:51 PM 64.9 °F 64.0 °F 97% 29.59 in 0.8 mi SSW 10.4 mph 21.9 mph 0.61 in Rain , Thunderstorm Heavy Thunderstorms and Rain
5:55 PM 64.4 °F 64.4 °F 100% 29.60 in 1.2 mi South 10.4 mph - 0.02 in Rain , Thunderstorm Heavy Thunderstorms and Rain
5:58 PM 64.4 °F 64.4 °F 100% 29.60 in 2.0 mi SSW 10.4 mph - 0.02 in Rain , Thunderstorm Thunderstorms and Rain
6:04 PM 66.2 °F 62.6 °F 88% 29.60 in 4.0 mi SW 12.7 mph 20.7 mph 0.03 in Rain Rain
6:51 PM 64.0 °F 59.0 °F 84% 29.60 in 10.0 mi South 10.4 mph - 0.08 in Rain Light Rain
7:51 PM 61.0 °F 59.0 °F 93% 29.64 in 8.0 mi South 6.9 mph - 0.09 in Rain Rain
8:51 PM 61.0 °F 57.0 °F 87% 29.68 in 10.0 mi Variable 3.5 mph - 0.01 in   Partly Cloudy
9:51 PM 60.1 °F 55.9 °F 86% 29.68 in 10.0 mi Variable 6.9 mph - N/A   Clear
10:51 PM 62.1 °F 55.0 °F 78% 29.70 in 10.0 mi WSW 9.2 mph 24.2 mph N/A   Clear
11:51 PM 61.0 °F 54.0 °F 78% 29.72 in 10.0 mi WSW 6.9 mph - N/A   Partly Cloudy